| time (UTC) | temp F | wind direction | speed knots | gust knots | rain 1hr in | rain 24hr in | rain mn in | humidity % | barometer mb |
| 20260504200231 | 70 | 191 | 2.6 | 5.2 | 0.00 | 0.00 | 0.00 | 56 | 1013.8 |
| 20260504195728 | 70 | 171 | 2.6 | 6.1 | 0.00 | 0.00 | 0.00 | 56 | 1013.8 |
| 20260504195224 | 70 | 174 | 2.6 | 7.0 | 0.00 | 0.00 | 0.00 | 56 | 1013.9 |
| 20260504194722 | 69 | 242 | 2.6 | 7.8 | 0.00 | 0.00 | 0.00 | 57 | 1014.0 |
| 20260504194218 | 69 | 201 | 4.3 | 7.0 | 0.00 | 0.00 | 0.00 | 57 | 1013.8 |
| 20260504193714 | 69 | 202 | 4.3 | 7.8 | 0.00 | 0.00 | 0.00 | 57 | 1013.9 |
| 20260504193212 | 69 | 200 | 6.1 | 8.7 | 0.00 | 0.00 | 0.00 | 56 | 1013.9 |
| 20260504192710 | 69 | 208 | 6.1 | 7.8 | 0.00 | 0.00 | 0.00 | 56 | 1014.1 |
| 20260504192208 | 69 | 176 | 4.3 | 7.8 | 0.00 | 0.00 | 0.00 | 56 | 1014.0 |
| 20260504191706 | 69 | 193 | 5.2 | 7.8 | 0.00 | 0.00 | 0.00 | 56 | 1014.0 |
| 20260504191202 | 68 | 170 | 4.3 | 7.0 | 0.00 | 0.00 | 0.00 | 58 | 1014.1 |
| 20260504190658 | 68 | 162 | 2.6 | 8.7 | 0.00 | 0.00 | 0.00 | 58 | 1014.2 |
| 20260504190154 | 69 | 171 | 7.0 | 7.8 | 0.00 | 0.00 | 0.00 | 57 | 1014.0 |
| 20260504185651 | 68 | 229 | 2.6 | 4.3 | 0.00 | 0.00 | 0.00 | 58 | 1014.2 |
| 20260504185148 | 68 | 202 | 5.2 | 6.1 | 0.00 | 0.00 | 0.00 | 59 | 1014.1 |
| 20260504184644 | 67 | 194 | 4.3 | 7.8 | 0.00 | 0.00 | 0.00 | 59 | 1014.2 |
| 20260504184139 | 66 | 187 | 5.2 | 7.8 | 0.00 | 0.00 | 0.00 | 61 | 1014.1 |
| 20260504183636 | 66 | 191 | 4.3 | 7.8 | 0.00 | 0.00 | 0.00 | 63 | 1014.2 |
| 20260504183133 | 66 | 208 | 3.5 | 6.1 | 0.00 | 0.00 | 0.00 | 62 | 1014.3 |
| 20260504182631 | 66 | 249 | 5.2 | 7.0 | 0.00 | 0.00 | 0.00 | 62 | 1014.3 |
| 20260504182128 | 66 | 228 | 4.3 | 6.1 | 0.00 | 0.00 | 0.00 | 63 | 1014.0 |
| 20260504181626 | 65 | 215 | 2.6 | 6.1 | 0.00 | 0.00 | 0.00 | 64 | 1014.4 |
| 20260504181123 | 66 | 193 | 4.3 | 5.2 | 0.00 | 0.00 | 0.00 | 63 | 1014.3 |
| 20260504180622 | 65 | 188 | 1.7 | 4.3 | 0.00 | 0.00 | 0.00 | 65 | 1014.5 |
| 20260504180121 | 66 | 237 | 4.3 | 7.0 | 0.00 | 0.00 | 0.00 | 63 | 1014.3 |
| 20260504175617 | 66 | 243 | 3.5 | 5.2 | 0.00 | 0.00 | 0.00 | 64 | 1014.5 |
| 20260504175114 | 65 | 174 | 1.7 | 6.1 | 0.00 | 0.00 | 0.00 | 64 | 1014.4 |
| 20260504174612 | 65 | 161 | 1.7 | 5.2 | 0.00 | 0.00 | 0.00 | 65 | 1014.4 |
| 20260504174108 | 64 | 191 | 3.5 | 6.1 | 0.00 | 0.00 | 0.00 | 67 | 1014.3 |
| 20260504173605 | 63 | 168 | 4.3 | 5.2 | 0.00 | 0.00 | 0.00 | 68 | 1014.2 |
| 20260504173103 | 63 | 204 | 4.3 | 7.0 | 0.00 | 0.00 | 0.00 | 66 | 1014.4 |
| 20260504172559 | 63 | 198 | 6.1 | 7.0 | 0.00 | 0.00 | 0.00 | 67 | 1014.3 |
| 20260504172056 | 63 | 211 | 3.5 | 7.0 | 0.00 | 0.00 | 0.00 | 66 | 1014.3 |
| 20260504171552 | 63 | 186 | 4.3 | 7.0 | 0.00 | 0.00 | 0.00 | 66 | 1014.3 |
| 20260504171050 | 63 | 203 | 3.5 | 7.0 | 0.00 | 0.00 | 0.00 | 67 | 1014.4 |
| 20260504170545 | 63 | 211 | 4.3 | 7.0 | 0.00 | 0.00 | 0.00 | 66 | 1014.2 |
| 20260504150929 | 59 | 155 | 0.0 | 0.0 | 0.00 | 0.00 | 0.00 | 78 | 1013.4 |
| 20260504150426 | 58 | 163 | 0.9 | 1.7 | 0.00 | 0.00 | 0.00 | 78 | 1013.7 |
| 20260504140852 | 51 | 151 | 0.0 | 0.0 | 0.00 | 0.00 | 0.00 | 94 | 1013.3 |
| 20260504140349 | 51 | 151 | 0.0 | 0.0 | 0.00 | 0.00 | 0.00 | 94 | 1013.1 |
| 20260504130817 | 50 | 147 | 0.0 | 0.0 | 0.00 | 0.00 | 0.00 | 92 | 1012.6 |
| 20260504130313 | 50 | 147 | 0.0 | 0.0 | 0.00 | 0.00 | 0.00 | 92 | 1012.5 |
| 20260504120237 | 52 | 139 | 0.0 | 0.0 | 0.00 | 0.00 | 0.00 | 90 | 1012.2 |
| 20260504110704 | 52 | 150 | 0.0 | 0.0 | 0.00 | 0.00 | 0.00 | 91 | 1012.5 |
| 20260504110201 | 52 | 147 | 0.0 | 0.0 | 0.00 | 0.00 | 0.00 | 90 | 1012.4 |
| 20260504100125 | 53 | 148 | 0.0 | 0.0 | 0.00 | 0.00 | 0.00 | 86 | 1012.3 |
| 20260504081518 | 56 | 150 | 0.0 | 0.0 | 0.00 | 0.00 | 0.00 | 79 | 1012.1 |
| 20260504081013 | 55 | 150 | 0.0 | 0.0 | 0.00 | 0.00 | 0.00 | 80 | 1012.1 |
| 20260504080510 | 55 | 150 | 0.0 | 0.0 | 0.00 | 0.00 | 0.00 | 80 | 1012.3 |
| 20260504050323 | 61 | 152 | 0.0 | 0.0 | 0.00 | 0.00 | 0.00 | 72 | 1012.3 |
| 20260504045820 | 61 | 152 | 0.0 | 0.0 | 0.00 | 0.00 | 0.00 | 71 | 1012.0 |
| 20260504045320 | 61 | 153 | 0.0 | 0.0 | 0.00 | 0.00 | 0.00 | 70 | 1012.0 |
| 20260504044817 | 62 | 152 | 0.0 | 0.0 | 0.00 | 0.00 | 0.00 | 69 | 1012.1 |
| 20260504044314 | 62 | 152 | 0.0 | 0.0 | 0.00 | 0.00 | 0.00 | 68 | 1012.1 |
| 20260504043812 | 62 | 152 | 0.0 | 0.0 | 0.00 | 0.00 | 0.00 | 67 | 1012.1 |
| 20260504043308 | 63 | 152 | 0.0 | 0.0 | 0.00 | 0.00 | 0.00 | 65 | 1011.9 |
| 20260504042806 | 63 | 151 | 0.0 | 0.9 | 0.00 | 0.00 | 0.00 | 65 | 1011.9 |
| 20260504042304 | 63 | 151 | 0.0 | 0.9 | 0.00 | 0.00 | 0.00 | 67 | 1011.9 |
| 20260504041759 | 64 | 149 | 0.0 | 0.0 | 0.00 | 0.00 | 0.00 | 65 | 1011.8 |
| 20260504041255 | 65 | 158 | 0.0 | 0.0 | 0.00 | 0.00 | 0.00 | 64 | 1011.9 |
| 20260504040751 | 65 | 156 | 0.0 | 0.9 | 0.00 | 0.00 | 0.00 | 63 | 1011.8 |
| 20260504040249 | 66 | 143 | 0.0 | 2.6 | 0.00 | 0.00 | 0.00 | 61 | 1011.9 |
| 20260504035744 | 67 | 147 | 0.0 | 0.0 | 0.00 | 0.00 | 0.00 | 59 | 1011.9 |
| 20260504035242 | 68 | 153 | 0.9 | 0.9 | 0.00 | 0.00 | 0.00 | 57 | 1011.9 |
| 20260504034739 | 68 | 124 | 0.9 | 0.9 | 0.00 | 0.00 | 0.00 | 55 | 1011.7 |
| 20260504034236 | 69 | 155 | 0.0 | 4.3 | 0.00 | 0.00 | 0.00 | 54 | 1011.5 |
| 20260504033734 | 69 | 143 | 0.0 | 1.7 | 0.00 | 0.00 | 0.00 | 53 | 1011.7 |
| 20260504033231 | 70 | 144 | 0.9 | 1.7 | 0.00 | 0.00 | 0.00 | 50 | 1011.8 |
| 20260504032728 | 70 | 147 | 0.0 | 1.7 | 0.00 | 0.00 | 0.00 | 52 | 1011.5 |
| 20260504032226 | 70 | 140 | 0.9 | 5.2 | 0.00 | 0.00 | 0.00 | 52 | 1011.7 |
| 20260504031722 | 70 | 150 | 0.9 | 1.7 | 0.00 | 0.00 | 0.00 | 51 | 1011.6 |
| 20260504031220 | 71 | 142 | 0.0 | 0.9 | 0.00 | 0.00 | 0.00 | 50 | 1011.4 |
| 20260504030715 | 72 | 156 | 0.0 | 0.9 | 0.00 | 0.00 | 0.00 | 48 | 1011.5 |
| 20260504030213 | 73 | 165 | 0.9 | 1.7 | 0.00 | 0.00 | 0.00 | 48 | 1011.5 |
| 20260504025709 | 73 | 133 | 0.0 | 1.7 | 0.00 | 0.00 | 0.00 | 45 | 1011.6 |
| 20260504025205 | 73 | 222 | 3.5 | 5.2 | 0.00 | 0.00 | 0.00 | 44 | 1011.6 |
| 20260504024703 | 74 | 173 | 0.9 | 2.6 | 0.00 | 0.00 | 0.00 | 45 | 1011.6 |
| 20260504024159 | 75 | 10 | 1.7 | 1.7 | 0.00 | 0.00 | 0.00 | 42 | 1011.7 |
| 20260504023656 | 75 | 149 | 0.9 | 5.2 | 0.00 | 0.00 | 0.00 | 42 | 1011.5 |
| 20260504023152 | 75 | 165 | 0.9 | 0.9 | 0.00 | 0.00 | 0.00 | 44 | 1011.5 |
| 20260504022648 | 76 | 159 | 0.9 | 4.3 | 0.00 | 0.00 | 0.00 | 44 | 1011.5 |
| 20260504022144 | 76 | 179 | 1.7 | 1.7 | 0.00 | 0.00 | 0.00 | 42 | 1011.4 |
| 20260504021642 | 77 | 171 | 0.9 | 1.7 | 0.00 | 0.00 | 0.00 | 41 | 1011.4 |
| 20260504021139 | 77 | 152 | 2.6 | 5.2 | 0.00 | 0.00 | 0.00 | 41 | 1011.6 |
| 20260504020636 | 78 | 116 | 2.6 | 2.6 | 0.00 | 0.00 | 0.00 | 40 | 1011.7 |
| 20260504020132 | 78 | 156 | 0.9 | 4.3 | 0.00 | 0.00 | 0.00 | 40 | 1011.5 |
| 20260504015628 | 78 | 142 | 1.7 | 5.2 | 0.00 | 0.00 | 0.00 | 40 | 1011.4 |
| 20260504015125 | 79 | 233 | 1.7 | 5.2 | 0.00 | 0.00 | 0.00 | 40 | 1011.7 |
| 20260504014621 | 79 | 176 | 0.9 | 2.6 | 0.00 | 0.00 | 0.00 | 40 | 1011.6 |
| 20260504014118 | 80 | 70 | 0.9 | 2.6 | 0.00 | 0.00 | 0.00 | 39 | 1011.6 |
| 20260504013615 | 80 | 157 | 0.9 | 1.7 | 0.00 | 0.00 | 0.00 | 38 | 1011.6 |
| 20260504013112 | 81 | 20 | 3.5 | 4.3 | 0.00 | 0.00 | 0.00 | 37 | 1011.6 |
| 20260504012610 | 81 | 356 | 2.6 | 4.3 | 0.00 | 0.00 | 0.00 | 37 | 1011.9 |
| 20260504012108 | 82 | 187 | 1.7 | 2.6 | 0.00 | 0.00 | 0.00 | 37 | 1011.6 |
| 20260504011604 | 82 | 166 | 0.9 | 4.3 | 0.00 | 0.00 | 0.00 | 36 | 1011.8 |
| 20260504011100 | 82 | 239 | 2.6 | 5.2 | 0.00 | 0.00 | 0.00 | 36 | 1011.7 |
| 20260504010556 | 82 | 169 | 0.9 | 1.7 | 0.00 | 0.00 | 0.00 | 38 | 1011.9 |
| 20260504010052 | 82 | 156 | 1.7 | 2.6 | 0.00 | 0.00 | 0.00 | 36 | 1011.7 |
| 20260504005549 | 82 | 231 | 1.7 | 2.6 | 0.00 | 0.00 | 0.00 | 37 | 1011.9 |
| 20260504005046 | 83 | 189 | 2.6 | 4.3 | 0.00 | 0.00 | 0.00 | 37 | 1012.1 |
| 20260504004544 | 84 | 183 | 1.7 | 5.2 | 0.00 | 0.00 | 0.00 | 36 | 1012.0 |
| 20260504004041 | 84 | 96 | 0.9 | 1.7 | 0.00 | 0.00 | 0.00 | 36 | 1012.2 |
| 20260504003537 | 84 | 164 | 0.9 | 1.7 | 0.00 | 0.00 | 0.00 | 37 | 1012.0 |
| 20260504003034 | 84 | 203 | 2.6 | 2.6 | 0.00 | 0.00 | 0.00 | 36 | 1012.2 |
| 20260504002531 | 84 | 149 | 0.9 | 6.1 | 0.00 | 0.00 | 0.00 | 34 | 1012.2 |
| 20260504002029 | 84 | 132 | 0.9 | 2.6 | 0.00 | 0.00 | 0.00 | 34 | 1012.3 |
| 20260504001526 | 83 | 348 | 3.5 | 5.2 | 0.00 | 0.00 | 0.00 | 35 | 1012.3 |
| 20260504001022 | 83 | 98 | 5.2 | 6.1 | 0.00 | 0.00 | 0.00 | 34 | 1012.3 |
| 20260504000519 | 83 | 168 | 0.0 | 6.1 | 0.00 | 0.00 | 0.00 | 34 | 1012.3 |
| 20260504000017 | 83 | 27 | 5.2 | 7.8 | 0.00 | 0.00 | 0.00 | 34 | 1012.5 |
| 20260503235515 | 83 | 181 | 1.7 | 4.3 | 0.00 | 0.00 | 0.00 | 34 | 1012.5 |
| 20260503235011 | 84 | 339 | 3.5 | 6.1 | 0.00 | 0.00 | 0.00 | 35 | 1012.6 |
| 20260503234509 | 83 | 260 | 2.6 | 6.1 | 0.00 | 0.00 | 0.00 | 36 | 1012.5 |
| 20260503234007 | 82 | 187 | 0.9 | 4.3 | 0.00 | 0.00 | 0.00 | 36 | 1012.7 |
| 20260503233503 | 82 | 227 | 3.5 | 6.1 | 0.00 | 0.00 | 0.00 | 36 | 1012.9 |
| 20260503232959 | 83 | 91 | 4.3 | 6.1 | 0.00 | 0.00 | 0.00 | 37 | 1012.8 |
| 20260503232456 | 83 | 30 | 2.6 | 4.3 | 0.00 | 0.00 | 0.00 | 37 | 1012.9 |
| 20260503231954 | 83 | 6 | 2.6 | 5.2 | 0.00 | 0.00 | 0.00 | 37 | 1013.0 |
| 20260503231452 | 83 | 159 | 2.6 | 6.1 | 0.00 | 0.00 | 0.00 | 37 | 1012.8 |
| 20260503230948 | 82 | 156 | 2.6 | 6.1 | 0.00 | 0.00 | 0.00 | 38 | 1013.0 |
| 20260503230444 | 82 | 219 | 2.6 | 2.6 | 0.00 | 0.00 | 0.00 | 38 | 1013.2 |
| 20260503225942 | 82 | 305 | 0.9 | 2.6 | 0.00 | 0.00 | 0.00 | 38 | 1013.4 |
| 20260503225439 | 82 | 220 | 2.6 | 7.0 | 0.00 | 0.00 | 0.00 | 38 | 1013.2 |
| 20260503224934 | 82 | 229 | 1.7 | 5.2 | 0.00 | 0.00 | 0.00 | 38 | 1013.2 |
| 20260503224431 | 82 | 199 | 2.6 | 4.3 | 0.00 | 0.00 | 0.00 | 39 | 1013.5 |
| 20260503223929 | 81 | 230 | 2.6 | 6.1 | 0.00 | 0.00 | 0.00 | 38 | 1013.4 |
| 20260503223427 | 81 | 209 | 3.5 | 5.2 | 0.00 | 0.00 | 0.00 | 38 | 1013.4 |
| 20260503222922 | 81 | 190 | 2.6 | 2.6 | 0.00 | 0.00 | 0.00 | 37 | 1013.6 |
| 20260503222421 | 81 | 246 | 3.5 | 5.2 | 0.00 | 0.00 | 0.00 | 39 | 1013.6 |
| 20260503221919 | 80 | 236 | 2.6 | 5.2 | 0.00 | 0.00 | 0.00 | 40 | 1013.9 |
| 20260503221417 | 79 | 191 | 3.5 | 7.8 | 0.00 | 0.00 | 0.00 | 40 | 1013.9 |
| 20260503220913 | 80 | 269 | 6.1 | 7.0 | 0.00 | 0.00 | 0.00 | 39 | 1013.9 |
| 20260503220410 | 80 | 207 | 6.1 | 7.8 | 0.00 | 0.00 | 0.00 | 38 | 1013.9 |
| 20260503215907 | 81 | 359 | 4.3 | 5.2 | 0.00 | 0.00 | 0.00 | 39 | 1014.0 |
| 20260503215404 | 81 | 206 | 2.6 | 4.3 | 0.00 | 0.00 | 0.00 | 39 | 1013.9 |
| 20260503214901 | 79 | 218 | 3.5 | 5.2 | 0.00 | 0.00 | 0.00 | 40 | 1014.0 |
| 20260503214358 | 79 | 254 | 3.5 | 6.1 | 0.00 | 0.00 | 0.00 | 41 | 1014.1 |
| 20260503213856 | 79 | 29 | 4.3 | 6.1 | 0.00 | 0.00 | 0.00 | 40 | 1014.1 |
| 20260503213354 | 80 | 222 | 3.5 | 9.6 | 0.00 | 0.00 | 0.00 | 40 | 1014.2 |
| 20260503212850 | 80 | 232 | 2.6 | 5.2 | 0.00 | 0.00 | 0.00 | 40 | 1014.1 |
| 20260503212348 | 80 | 234 | 2.6 | 6.1 | 0.00 | 0.00 | 0.00 | 40 | 1014.2 |
| 20260503211845 | 79 | 245 | 2.6 | 4.3 | 0.00 | 0.00 | 0.00 | 42 | 1014.3 |
| 20260503211342 | 78 | 251 | 5.2 | 7.0 | 0.00 | 0.00 | 0.00 | 41 | 1014.3 |
| 20260503210837 | 78 | 132 | 1.7 | 4.3 | 0.00 | 0.00 | 0.00 | 42 | 1014.3 |
| 20260503210334 | 79 | 256 | 5.2 | 6.1 | 0.00 | 0.00 | 0.00 | 40 | 1014.4 |
| 20260503205829 | 79 | 243 | 3.5 | 5.2 | 0.00 | 0.00 | 0.00 | 41 | 1014.4 |
| 20260503205326 | 79 | 6 | 3.5 | 6.1 | 0.00 | 0.00 | 0.00 | 40 | 1014.4 |
| 20260503204823 | 79 | 282 | 4.3 | 5.2 | 0.00 | 0.00 | 0.00 | 41 | 1014.6 |
| 20260503204320 | 79 | 159 | 2.6 | 2.6 | 0.00 | 0.00 | 0.00 | 41 | 1014.8 |
| 20260503203817 | 79 | 244 | 3.5 | 5.2 | 0.00 | 0.00 | 0.00 | 42 | 1014.5 |
| 20260503203315 | 78 | 140 | 0.9 | 2.6 | 0.00 | 0.00 | 0.00 | 43 | 1014.6 |
| 20260503202811 | 78 | 233 | 2.6 | 4.3 | 0.00 | 0.00 | 0.00 | 43 | 1014.7 |
| 20260503202310 | 79 | 353 | 5.2 | 12.2 | 0.00 | 0.00 | 0.00 | 42 | 1014.7 |
| 20260503201807 | 78 | 164 | 0.9 | 1.7 | 0.00 | 0.00 | 0.00 | 44 | 1014.9 |
| 20260503201304 | 79 | 177 | 5.2 | 7.0 | 0.00 | 0.00 | 0.00 | 42 | 1015.0 |
| 20260503200802 | 79 | 155 | 0.9 | 1.7 | 0.00 | 0.00 | 0.00 | 43 | 1015.0 |